Location: L’Adrech
(44.2500°N, 6.4167°E)
Time: 23:49:58
(UTC+00:00)

Daily predictions for brighter satellites

Satellite Brightness Start Highest point End
(mag) Time Altitude Azimuth Time Altitude Azimuth Time Altitude Azimuth
Cosmos 2279 Rocket 4.1 16:16:26 10° S 16:22:30 60° E 16:28:37 10° NNE
Cosmos 1602 Rocket 4.4 16:20:33 10° NNE 16:24:25 29° ENE 16:28:14 10° SE
Cosmos 1570 Rocket 4.0 16:22:28 10° NNW 16:27:51 76° ENE 16:33:08 10° SSE
Cosmos 1092 Rocket 4.3 16:22:29 10° NNW 16:28:38 73° W 16:34:43 10° S
SMAP 3.4 16:24:52 10° SE 16:29:15 43° ENE 16:33:41 10° N
Cosmos 1656 3.7 16:24:37 10° SSW 16:30:12 77° ESE 16:35:53 10° NNE
Cosmos 836 Rocket 4.5 16:25:52 10° NNW 16:31:07 72° ENE 16:36:22 10° SSE
YAOGAN 1 4.4 16:32:23 10° ENE 16:33:31 11° ENE 16:34:39 10° NE
Cosmos 2228 3.4 16:29:40 10° SSW 16:33:52 68° W 16:38:06 10° N
UNK 4.0 16:29:49 10° NNE 16:34:18 50° E 16:38:42 10° S
NOSS 2-2 (C) 4.4 16:31:29 10° WSW 16:34:21 27° NW 16:36:59 10° NNE
Landsat 7 4.2 16:30:29 10° SE 16:34:46 38° ENE 16:39:04 10° N
SAR-Lupe-4 4.4 16:32:02 10° SE 16:35:07 28° ENE 16:38:13 10° N
Cosmos 1486 Rocket 4.1 16:30:11 10° S 16:35:17 61° ESE 16:40:28 10° NNE
Cosmos 1867 4.3 16:31:59 10° NNW 16:36:51 31° NE 16:41:40 10° ESE
Cosmos 2297 Rocket 2.3 16:35:41 10° NNW 16:41:16 57° ENE 16:46:49 10° SE
USA 290 2.7 16:38:13 10° N 16:41:17 37° ENE 16:44:20 10° SE
USA 215 4.4 16:36:01 10° NE 16:41:28 29° N 16:46:55 10° WNW
Cosmos 1782 2.5 16:40:43 10° S 16:44:19 86° E 16:47:56 10° N
Cosmos 773 Rocket 3.9 16:39:25 10° NNW 16:44:39 76° ENE 16:49:53 10° SSE
ATLAS CENTAUR R/B 0.5 16:44:48 10° NNW 16:48:02 72° NE 16:51:09 10° SE
CZ-4C R/B 3.1 16:42:15 10° NNW 16:49:02 53° NE 16:57:23 10° ESE
Cosmos 1607 4.0 16:44:10 10° NNW 16:50:21 61° NE 16:56:34 10° SE
CZ-2D R/B 3.2 16:47:42 10° SE 16:50:39 38° ENE 16:53:35 10° N
Cosmos 1733 1.6 16:49:29 10° NNW 16:51:03 55° W 16:52:36 10° S
IRS-P3 4.4 16:48:36 10° SE 16:53:36 43° ENE 16:58:35 10° N
Lacrosse 4 Rocket 3.8 16:51:50 10° W 16:54:12 15° NW 16:56:33 10° N
ARIANE 5 R/B 2.5 16:50:19 10° SSE 16:55:17 61° ENE 17:00:20 10° N
NOSS 2-3 (E) 4.5 16:54:33 10° S 16:57:32 23° ESE 16:59:21 16° ENE
Cosmos 1825 Rocket 4.2 16:54:17 10° N 16:58:14 32° ENE 17:02:06 10° SE
Cosmos 1758 Rocket 3.8 16:56:13 10° NNW 17:00:31 71° W 17:04:46 10° S
Cosmos 2098 Rocket 3.1 16:56:46 10° S 17:00:41 79° W 17:05:22 10° N
Cosmos 2266 Rocket 3.9 16:54:40 10° N 17:00:47 63° E 17:06:46 10° SSE
Cosmos 2208 Rocket 4.2 16:59:09 10° NNW 17:04:19 74° WSW 17:09:29 10° SSE
SPOT 1/Viking Rocket 4.0 17:00:35 10° SE 17:05:18 37° ENE 17:10:03 10° N
Cosmos 1980 Rocket 3.3 17:01:09 10° SSE 17:05:29 23° E 17:08:00 17° ENE
Cosmos 2151 2.8 17:01:44 10° N 17:05:54 77° E 17:10:03 10° SSE
Cosmos 1743 2.4 17:03:15 10° NNW 17:06:31 75° W 17:09:44 10° S
Cosmos 2058 Rocket 4.3 17:11:13 10° SE 17:14:32 21° E 17:14:42 21° E
SL-16 R/B 3.7 17:11:13 10° N 17:17:01 42° WNW 17:22:46 10° SW
NOSS 3-2 (C) 3.1 17:13:04 10° SW 17:18:02 81° NW 17:23:02 15° NE
NOSS 3-2 (A) 4.3 17:13:45 10° WSW 17:18:29 37° NW 17:24:05 10° NNE
Cosmos 2263 Rocket 2.9 17:14:29 10° N 17:19:30 31° NE 17:23:09 16° ESE
CZ-4 R/B 4.5 17:18:22 10° SE 17:22:09 47° ENE 17:25:57 10° N
MOS 1 Rocket 3.3 17:17:40 10° SSE 17:22:29 79° ENE 17:27:37 10° N
BREEZE M DEB (TANK) 1.7 17:22:42 10° WSW 17:25:03 56° NNW 17:25:20 49° NNE
Cosmos 783 Rocket 4.4 17:20:07 10° NNW 17:25:27 79° ENE 17:30:44 10° SSE
AQUARIUS 4.1 17:21:08 10° SSE 17:25:32 90° W 17:29:59 10° NNW
Cosmos 1933 3.1 17:23:02 10° S 17:26:51 87° ESE 17:30:42 10° N
Cosmos 1076 Rocket 3.8 17:23:31 10° N 17:27:37 42° ENE 17:31:43 10° SSE
SJ-12 4.1 17:24:44 10° S 17:28:29 66° WSW 17:32:16 10° NNW
Cosmos 1606 Rocket 3.5 17:25:54 10° S 17:30:18 84° E 17:34:45 10° N
Cosmos 2084 Rocket 3.2 17:27:51 10° NW 17:32:06 79° NE 17:36:12 11° SE
Cosmos 2227 Rocket 2.1 17:26:51 10° NNW 17:32:29 63° ENE 17:38:03 10° SE
Cosmos 1538 Rocket 4.5 17:28:32 10° N 17:33:25 37° ENE 17:36:27 20° ESE
BlueWalker 3 3.5 17:30:10 10° WNW 17:33:27 32° SW 17:36:42 10° SSE
Cosmos 1900 4.2 17:29:48 10° NNW 17:34:52 81° ENE 17:39:49 10° SE
PSLV R/B 4.1 17:31:37 10° SE 17:36:05 32° NE 17:39:00 10° N
CZ-2D R/B 3.5 17:31:55 10° SSE 17:36:01 52° ENE 17:40:04 10° N
SL-19 R/B 4.4 17:34:38 10° SE 17:39:43 47° ENE 17:45:05 10° N
Resurs 1-3 3.7 17:35:56 10° SE 17:40:02 47° ENE 17:44:10 10° N
COSMO-SKYMED 1 2.7 17:39:14 38° ENE 17:40:06 44° E 17:44:02 10° S
BREEZE-M DEB (TANK) 4.0 17:40:11 10° WNW 17:43:46 57° NNE 17:48:33 27° E
SAR-Lupe-3 4.5 17:45:05 46° NW 17:45:18 48° WNW 17:47:43 10° SSW
Meteor 2-20 4.4 17:39:46 10° S 17:45:51 68° E 17:51:58 10° NNE
Cosmos 1697 Rocket 2.8 17:40:50 10° SSW 17:46:25 77° WNW 17:50:44 18° NNE
Cosmos 1354 Rocket 4.3 17:43:57 10° SSW 17:49:11 68° WNW 17:53:34 15° NNE
Lacrosse 5 rocket 3.5 17:48:06 10° NW 17:49:40 12° N 17:49:58 12° N
Cosmos 1461 4.0 17:48:55 10° WSW 17:52:31 35° NW 17:54:18 23° N
Spot 4 Rocket 3.9 17:48:40 10° SSE 17:53:44 72° ENE 17:58:51 10° N
IRAS Rocket 4.1 17:49:33 10° SSE 17:54:57 62° ENE 18:00:21 10° N
Cosmos 1726 Rocket 3.9 17:50:56 10° SSW 17:55:34 73° W 17:59:49 12° N
Cosmos 1655 Rocket 4.0 17:55:51 10° N 18:02:06 84° W 18:08:18 10° S
Gbstr 26 Del rocket 2.7 17:58:31 10° WSW 18:02:29 65° NNW 18:02:38 64° N
SKYMED 2 3.8 17:59:35 19° N 18:02:37 68° WNW 18:06:55 10° SSW
Cosmos 1898 Rocket 3.7 17:58:34 10° S 18:03:17 48° ESE 18:03:17 48° ESE
Meteor 2-20 Rocket 4.3 18:01:44 10° S 18:07:59 71° E 18:12:30 19° NNE
YAOGAN 1 2.5 18:04:27 10° SSE 18:08:41 83° WSW 18:12:59 10° NNW
CENTAUR R/B 4.5 18:04:07 10° WNW 18:08:45 20° NNW 18:12:28 14° NNE
Meteor 2-10 4.0 18:03:57 10° N 18:09:19 76° E 18:14:51 10° SSE
NOSS 2-3 (C) 3.6 18:09:55 10° SW 18:12:46 55° WSW 18:12:46 55° WSW
Meteor 1-26 Rocket 3.9 18:11:38 10° S 18:17:02 74° E 18:18:03 58° NE
USA 238 DEB 3.3 18:12:01 10° SSW 18:18:03 84° SE 18:19:57 49° NE
USA 238 3.3 18:12:07 10° SSW 18:18:09 83° SE 18:20:01 49° NE
Cosmos 2082 4.3 18:12:57 10° NNW 18:17:04 39° NNE 18:17:04 39° NNE
Cosmos 1867 4.4 18:15:23 10° NW 18:20:38 50° WSW 18:25:51 10° SSE
USA 215 3.9 18:22:49 36° NNE 18:23:23 37° NNE 18:29:17 10° NW
Cosmos 1953 Rocket 4.4 18:20:53 10° NNW 18:25:11 50° W 18:29:28 10° SSW
Cosmos 1937 Rocket 4.3 18:20:31 10° S 18:23:43 36° SSE 18:23:43 36° SSE
Cosmos 372 Rocket 3.8 18:20:54 10° SSW 18:26:04 87° WNW 18:26:26 78° N
Cosmos-2242 3.6 18:21:52 10° SSW 18:25:05 50° SSW 18:25:05 50° SSW
Aureole 1 Rocket 3.3 18:22:59 10° SSW 18:27:11 75° WNW 18:27:17 75° NW
CZ-4C R/B 4.0 18:30:31 10° NW 18:37:32 46° WSW 18:45:50 10° S
NOAA 6 4.3 18:33:58 10° S 18:39:01 66° WSW 18:44:07 10° NNW
BREEZE-M DEB (TANK) 4.3 18:34:18 10° SW 18:40:13 45° S 18:40:13 45° S
Cosmos 2219 3.4 18:36:46 10° NNW 18:41:34 63° NNW 18:41:34 63° NNW
Cosmos 1980 Rocket 2.7 18:43:29 10° SW 18:49:02 55° WNW 18:49:47 51° NNW
Cosmos 2058 Rocket 4.4 18:47:57 10° SW 18:51:55 37° W 18:51:55 37° W
Cosmos 2369 4.3 18:51:29 10° SSW 18:55:44 52° SW 18:55:44 52° SW
Cosmos 2263 Rocket 3.1 18:58:11 10° NW 19:03:33 45° WSW 19:04:58 37° SW
Cosmos 1553 Rocket 4.5 18:59:07 10° SSW 19:05:07 57° WNW 19:06:49 43° NNW
